Temp
9 9 9 9 9 9 9 9 9 9 10 10 10 10 11 11 11 11 11 11 11 11 11 12 12 12 12 12 12 11 13 13 14 14 14 15 15 15 15 16 16 16 16 16 16 15 15
9 9 9 9 9 9 9 9 9 9 10 10 10 10 11 11 11 11 11 11 11 11 11 12 12 12 12 12 12 12 12 13 13 14 14 15 15 15 15 16 16 16 16 16 16 15 15
9 9 10 10 10 10 10 10 10 9 9 10 10 10 10 10 11 11 11 11 11 12 12 12 12 12 12 12 12 12 12 13 13 13 14 15 15 14 16 15 15 16 16 16 16 15 15
8 9 9 9 10 10 10 11 10 10 10 10 10 10 10 10 10 10 11 11 11 11 12 12 12 12 12 12 12 13 13 13 13 13 14 14 14 15 14 15 15 16 16 17 16 15 15
7 8 8 8 9 9 9 10 11 11 11 10 10 10 10 10 10 10 10 11 11 11 11 12 12 12 12 12 12 12 12 13 12 13 14 14 14 14 14 15 16 17 18 18 16 15 15
8 8 9 9 8 8 9 9 9 10 10 11 11 10 10 10 10 10 10 10 11 11 11 11 12 12 12 11 12 12 12 12 12 12 13 14 13 13 14 16 17 18 18 18 18 16 15
8 8 8 8 8 8 8 8 9 9 9 10 10 10 9 10 10 10 10 10 10 11 11 11 11 12 12 12 11 11 12 12 12 11 12 13 13 14 15 16 17 18 18 18 18 17 16
8 8 8 8 8 8 8 8 8 8 9 9 10 11 10 10 10 10 10 10 10 10 12 11 12 13 13 12 13 12 11 10 11 12 12 12 13 15 15 16 16 17 18 18 18 16 16
7 7 7 7 7 8 8 8 8 9 9 9 9 10 10 9 9 9 10 9 9 10 10 14 13 13 13 12 13 13 12 11 11 12 13 13 14 14 15 16 16 17 18 18 18 16 16
6 6 7 7 7 7 7 8 8 8 8 8 9 10 10 9 9 9 9 9 9 9 9 12 12 12 12 12 13 13 13 12 11 12 13 13 15 14 14 15 16 17 17 18 18 17 17
5 6 6 6 7 7 7 7 7 8 8 8 8 8 9 9 8 8 9 8 8 8 12 12 11 12 12 13 12 13 13 11 12 12 13 14 14 13 14 15 16 17 18 17 17 18 17
5 5 5 6 6 6 6 7 7 7 7 7 7 7 8 8 8 7 7 8 8 8 12 12 11 12 12 12 12 12 13 11 12 12 12 13 13 14 14 15 15 16 16 17 17 17 19
3 3 3 4 4 5 5 5 5 6 6 6 6 6 7 8 7 7 7 7 7 10 11 12 11 11 12 12 12 11 11 11 12 12 12 12 13 13 14 14 15 15 16 17 18 18 19
1 1 1 2 2 2 2 3 4 4 5 5 5 5 5 6 7 6 6 5 8 10 10 11 11 11 12 12 12 12 12 12 12 12 14 13 13 13 13 15 16 15 16 18 18 19 20
1 0 0 0 0 1 1 1 2 3 3 4 4 4 4 5 6 6 5 5 8 9 10 11 11 11 12 12 11 12 12 13 13 12 13 14 14 14 14 14 15 16 16 17 18 19 19
-1 -0 -1 -0 -0 -0 0 1 1 1 2 2 3 4 4 4 5 5 4 5 8 8 9 10 11 12 13 13 12 12 13 13 13 13 13 14 14 14 14 14 15 16 16 16 17 19 19
-2 -2 -2 -2 -2 -1 -1 -1 -1 -1 -0 0 1 1 2 2 3 4 3 5 6 7 7 8 10 11 11 12 11 13 13 13 13 13 12 13 13 14 14 14 15 15 16 16 17 18 20
-2 -3 -3 -3 -3 -3 -3 -3 -3 -2 -2 -2 -1 -1 -0 1 0 1 3 4 5 5 6 7 8 9 10 10 11 11 12 12 12 13 13 13 13 13 14 15 15 16 16 16 17 17 18
-3 -3 -3 -3 -3 -3 -3 -3 -3 -3 -3 -3 -2 -2 -1 -1 -1 1 2 2 3 3 5 6 7 7 9 9 10 10 11 11 11 12 13 13 13 14 14 15 15 15 16 16 16 17 18
-4 -4 -4 -4 -4 -4 -5 -5 -5 -4 -4 -4 -4 -4 -2 -2 -2 -2 -0 -0 1 2 3 5 7 7 8 8 9 10 10 11 11 11 11 12 13 13 15 15 15 15 15 16 16 17 17
-4 -5 -5 -6 -6 -6 -6 -7 -8 -8 -6 -6 -7 -5 -4 -3 -2 -3 -3 -2 -1 1 2 4 5 6 7 8 8 9 9 10 10 10 10 11 12 13 13 14 15 15 15 15 16 16 17
-5 -5 -6 -6 -7 -7 -8 -8 -7 -8 -7 -8 -7 -7 -7 -4 -3 -3 -3 -2 -1 -0 1 2 4 5 6 7 8 8 8 9 10 11 11 11 11 12 13 14 14 15 15 15 15 16 16
-5 -6 -6 -8 -8 -8 -8 -8 -8 -8 -8 -8 -8 -7 -7 -6 -4 -4 -4 -3 -2 -2 -1 -0 1 1 2 4 5 6 6 7 8 9 10 10 11 11 13 14 14 14 15 15 15 15 16
-7 -7 -8 -8 -8 -8 -8 -8 -8 -8 -8 -8 -8 -8 -8 -8 -6 -6 -4 -4 -4 -3 -2 -0 -1 0 2 3 4 5 5 6 6 7 8 9 9 11 12 12 14 15 15 15 15 15 15
-8 -8 -8 -8 -8 -8 -8 -8 -8 -8 -8 -8 -8 -8 -8 -8 -8 -7 -5 -5 -5 -4 -2 0 1 -0 0 3 3 5 6 7 7 7 8 8 9 11 12 13 13 13 14 14 14 15 15
-8 -8 -8 -8 -8 -8 -8 -8 -8 -8 -8 -8 -8 -8 -8 -8 -7 -7 -7 -6 -5 -3 -3 -1 1 1 1 1 3 5 7 8 8 9 8 9 8 10 11 12 13 11 12 13 13 13 15
-8 -8 -8 -8 -8 -8 -8 -8 -8 -8 -8 -8 -8 -8 -8 -8 -7 -7 -8 -7 -6 -5 -4 -4 0 -0 0 1 3 6 8 9 10 10 9 9 9 10 11 11 11 10 12 11 10 14 15
-8 -8 -8 -8 -8 -8 -8 -8 -8 -8 -8 -8 -8 -8 -8 -8 -6 -7 -7 -7 -5 -6 -5 -4 -2 -1 -0 1 3 6 8 9 10 10 8 8 9 11 10 10 11 9 10 10 10 12 13
-9 -8 -8 -8 -8 -8 -8 -8 -8 -8 -8 -8 -8 -8 -8 -8 -7 -6 -6 -5 -5 -4 -4 -3 -2 -2 -1 -0 1 3 6 7 9 10 9 9 10 10 9 10 9 9 10 9 7 8 11
Height
3173 3171 3168 3166 3165 3163 3161 3160 3159 3158 3157 3156 3155 3154 3154 3153 3152 3150 3150 3149 3148 3147 3146 3145 3145 3144 3143 3143 3143 3141 3143 3144 3147 3151 3156 3162 3166 3171 3174 3177 3179 3179 3181 3181 3182 3181 3184
3172 3169 3166 3164 3161 3159 3157 3156 3154 3154 3153 3152 3151 3151 3150 3149 3148 3147 3146 3146 3145 3144 3143 3142 3142 3141 3140 3140 3139 3139 3140 3141 3143 3147 3152 3156 3162 3168 3173 3175 3177 3178 3178 3179 3179 3180 3182
3169 3166 3164 3162 3160 3157 3155 3152 3150 3149 3148 3147 3147 3146 3145 3145 3144 3142 3141 3141 3141 3140 3140 3139 3139 3138 3137 3138 3136 3136 3136 3138 3141 3144 3149 3154 3158 3164 3168 3172 3174 3175 3177 3175 3176 3178 3179
3168 3165 3162 3159 3157 3155 3152 3150 3148 3145 3144 3142 3141 3140 3139 3139 3139 3139 3137 3136 3136 3136 3136 3136 3135 3134 3133 3132 3131 3131 3133 3135 3138 3141 3145 3148 3154 3158 3165 3170 3171 3173 3174 3173 3174 3174 3177
3164 3162 3159 3156 3154 3151 3148 3146 3144 3142 3140 3138 3137 3136 3134 3132 3132 3133 3132 3132 3132 3131 3131 3131 3131 3131 3130 3128 3128 3128 3130 3132 3134 3137 3141 3146 3150 3155 3161 3165 3168 3168 3167 3169 3171 3172 3173
3160 3157 3154 3152 3150 3148 3146 3143 3140 3138 3136 3134 3132 3130 3130 3128 3126 3126 3126 3127 3127 3126 3127 3126 3126 3129 3127 3126 3124 3126 3127 3129 3132 3134 3138 3142 3146 3152 3155 3159 3158 3161 3164 3164 3167 3169 3172
3156 3153 3150 3147 3145 3142 3140 3138 3135 3133 3131 3129 3128 3126 3125 3123 3122 3120 3122 3122 3124 3121 3120 3121 3121 3121 3122 3122 3121 3122 3123 3126 3129 3131 3134 3137 3142 3141 3150 3155 3158 3159 3161 3162 3164 3166 3170
3151 3148 3145 3142 3140 3137 3135 3133 3131 3129 3126 3124 3123 3121 3120 3118 3117 3116 3116 3116 3116 3116 3112 3113 3112 3111 3113 3114 3113 3116 3118 3123 3124 3127 3133 3136 3133 3143 3150 3153 3155 3156 3158 3159 3161 3164 3167
3145 3142 3139 3136 3133 3132 3130 3127 3125 3123 3121 3119 3117 3116 3116 3113 3112 3112 3111 3111 3110 3110 3109 3105 3104 3103 3105 3107 3107 3108 3110 3115 3119 3123 3126 3128 3134 3141 3144 3147 3150 3151 3153 3155 3157 3161 3163
3139 3135 3132 3128 3125 3123 3122 3120 3118 3116 3115 3113 3111 3110 3110 3109 3109 3106 3106 3107 3107 3107 3104 3101 3096 3098 3101 3102 3102 3102 3104 3110 3114 3117 3122 3126 3132 3133 3137 3140 3146 3146 3150 3153 3155 3158 3158
3134 3130 3126 3123 3119 3116 3114 3112 3110 3108 3106 3104 3104 3103 3103 3101 3102 3101 3103 3103 3103 3107 3103 3095 3092 3093 3096 3100 3099 3098 3099 3106 3109 3112 3118 3116 3121 3125 3128 3133 3141 3142 3148 3151 3152 3153 3155
3127 3122 3118 3114 3111 3108 3105 3103 3102 3099 3098 3095 3095 3093 3097 3096 3094 3095 3097 3099 3102 3107 3093 3089 3088 3088 3092 3093 3094 3093 3095 3102 3108 3110 3111 3114 3118 3121 3124 3131 3136 3143 3145 3145 3147 3148 3144
3114 3109 3106 3103 3100 3097 3095 3092 3091 3090 3089 3087 3086 3085 3085 3089 3090 3089 3091 3095 3101 3091 3084 3084 3084 3087 3088 3090 3090 3090 3091 3094 3097 3101 3103 3109 3110 3114 3118 3124 3131 3136 3139 3140 3140 3136 3134
3104 3100 3096 3091 3088 3085 3083 3081 3080 3079 3078 3078 3077 3076 3076 3078 3080 3082 3084 3091 3084 3075 3077 3077 3080 3081 3084 3086 3085 3086 3089 3090 3093 3096 3098 3101 3103 3104 3108 3112 3119 3124 3129 3126 3126 3126 3130
3092 3089 3086 3083 3079 3076 3073 3071 3070 3068 3067 3068 3068 3068 3068 3069 3072 3074 3077 3073 3066 3069 3073 3075 3075 3076 3077 3079 3081 3081 3082 3082 3085 3089 3091 3092 3093 3101 3104 3109 3114 3116 3118 3126 3124 3123 3122
3083 3079 3076 3073 3070 3067 3065 3063 3061 3059 3059 3057 3058 3058 3059 3060 3061 3063 3063 3055 3058 3064 3065 3069 3067 3068 3068 3071 3074 3075 3075 3075 3077 3082 3086 3088 3090 3093 3097 3105 3106 3106 3116 3121 3116 3112 3112
3076 3072 3069 3065 3063 3059 3057 3053 3051 3050 3050 3049 3048 3047 3047 3049 3050 3048 3043 3046 3052 3055 3059 3062 3061 3062 3063 3065 3067 3067 3069 3071 3071 3075 3080 3084 3088 3088 3094 3089 3093 3101 3102 3106 3112 3111 3107
3068 3064 3061 3058 3055 3053 3050 3046 3044 3042 3042 3040 3039 3041 3038 3040 3043 3038 3035 3039 3044 3045 3048 3052 3054 3054 3057 3060 3061 3062 3063 3067 3067 3070 3072 3077 3081 3082 3080 3085 3090 3093 3096 3100 3099 3102 3103
3059 3055 3052 3049 3046 3043 3042 3039 3036 3034 3033 3033 3032 3029 3032 3030 3031 3031 3033 3031 3031 3034 3038 3043 3043 3046 3051 3052 3055 3055 3057 3061 3063 3064 3066 3071 3072 3075 3078 3081 3082 3083 3088 3092 3096 3098 3091
3048 3044 3041 3038 3035 3032 3030 3028 3026 3025 3025 3025 3027 3025 3026 3021 3023 3023 3025 3022 3023 3025 3027 3034 3036 3037 3041 3043 3046 3048 3050 3054 3057 3059 3059 3062 3065 3065 3062 3066 3071 3075 3078 3081 3086 3083 3087
3040 3035 3031 3027 3026 3023 3021 3020 3018 3016 3015 3017 3017 3019 3016 3018 3020 3018 3018 3019 3017 3018 3021 3025 3026 3027 3031 3035 3038 3040 3046 3048 3052 3053 3055 3059 3059 3060 3061 3062 3064 3066 3069 3074 3073 3075 3075
3032 3026 3023 3021 3018 3015 3014 3014 3013 3011 3011 3011 3010 3011 3007 3008 3009 3009 3010 3011 3012 3013 3016 3018 3020 3022 3024 3027 3031 3034 3039 3041 3046 3050 3050 3053 3055 3055 3054 3057 3059 3059 3061 3064 3066 3068 3069
3023 3020 3016 3013 3012 3009 3007 3006 3007 3005 3005 3003 3003 3002 3001 2999 3000 3001 3004 3006 3006 3007 3010 3012 3012 3010 3013 3020 3022 3025 3028 3031 3037 3042 3044 3047 3050 3051 3047 3047 3048 3049 3050 3053 3058 3060 3062
3015 3012 3010 3007 3005 3003 3001 2998 2999 2998 2998 2998 2997 2997 2995 2993 2997 2995 2997 2997 2999 3000 3001 3003 3004 3005 3009 3010 3013 3017 3021 3024 3028 3032 3037 3040 3043 3044 3042 3043 3044 3040 3043 3045 3047 3051 3054
3008 3004 3002 3000 2999 2996 2995 2993 2993 2992 2992 2991 2992 2991 2990 2987 2990 2988 2988 2990 2992 2993 2994 2995 2998 3000 3001 3006 3009 3012 3016 3019 3018 3023 3028 3033 3037 3038 3039 3038 3037 3036 3038 3040 3041 3041 3047
2999 2997 2994 2992 2992 2990 2989 2987 2986 2985 2984 2985 2986 2986 2985 2983 2983 2983 2983 2982 2984 2986 2987 2988 2992 2994 2997 3001 3004 3002 3003 3006 3011 3015 3021 3026 3030 3034 3031 3031 3030 3033 3029 3030 3033 3033 3039
2992 2990 2988 2986 2985 2984 2983 2981 2980 2979 2978 2979 2980 2980 2979 2977 2976 2978 2979 2980 2982 2983 2986 2985 2985 2989 2992 2996 2997 2996 2996 2997 3001 3004 3011 3016 3021 3023 3025 3027 3029 3024 3026 3028 3034 3031 3032
2985 2984 2982 2980 2979 2978 2977 2976 2975 2974 2974 2973 2972 2975 2975 2972 2969 2969 2970 2971 2973 2976 2981 2981 2983 2984 2988 2990 2990 2988 2987 2989 2994 2997 3003 3009 3015 3016 3020 3023 3023 3020 3024 3025 3024 3020 3022
2979 2977 2977 2975 2974 2973 2972 2971 2970 2969 2969 2969 2970 2971 2970 2967 2964 2964 2964 2965 2966 2971 2973 2975 2979 2981 2983 2984 2986 2986 2984 2981 2989 2992 2996 3004 3008 3011 3019 3018 3014 3015 3017 3019 3022 3020 3019
Wind_Speed
15 14 15 15 15 15 15 15 16 16 17 16 15 15 15 15 14 14 14 14 14 14 12 11 12 12 11 10 6 16 13 17 23 26 27 28 27 23 20 15 14 15 9 10 8 8 9
15 16 16 16 16 17 16 17 17 16 17 18 18 17 17 16 16 16 16 15 15 14 14 13 12 13 13 12 8 12 15 17 21 26 27 31 30 24 17 18 16 10 10 10 8 9 12
16 16 16 15 15 16 17 17 18 19 19 18 19 19 20 20 20 19 19 17 16 15 13 14 13 14 13 6 10 11 15 18 19 23 28 30 31 27 24 17 17 15 10 10 9 14 12
17 17 17 16 16 15 15 16 17 17 18 19 20 20 21 21 23 22 23 21 18 17 15 14 15 17 15 15 12 14 14 17 18 21 28 32 33 29 20 17 13 15 13 13 9 15 13
19 19 19 18 17 17 17 16 15 16 17 18 19 20 22 23 23 22 23 22 21 19 17 16 17 19 18 7 3 6 11 16 17 21 27 31 33 30 22 22 20 19 18 15 11 16 14
24 24 24 23 21 19 18 18 18 18 18 18 19 18 19 22 22 24 23 22 22 21 21 19 19 18 13 10 11 10 10 16 18 19 24 28 34 26 25 30 30 24 21 15 17 20 17
26 25 24 24 24 23 22 21 20 19 19 19 19 20 19 20 20 21 23 22 22 24 22 20 17 21 22 25 23 17 14 16 20 18 21 26 33 37 32 31 28 21 19 16 20 14 19
28 27 26 25 25 24 24 23 23 22 21 20 20 18 19 21 20 20 20 20 23 24 27 23 22 24 20 23 27 25 23 18 23 24 22 24 37 32 30 29 29 24 23 22 19 16 17
31 31 29 28 28 26 26 26 26 25 25 23 22 19 19 20 21 21 19 19 20 21 24 22 18 17 15 15 10 14 30 25 24 27 29 31 29 29 29 31 31 31 27 24 23 16 16
34 34 34 34 32 30 29 29 28 28 28 26 25 21 19 20 21 20 18 17 17 16 14 14 12 13 14 11 11 10 22 27 25 30 29 28 31 31 30 32 32 33 29 24 23 20 21
37 35 35 36 35 34 33 32 31 30 29 29 27 25 20 20 20 20 18 17 13 10 6 7 12 15 11 10 10 11 16 27 27 23 32 33 34 32 34 36 33 36 27 27 25 23 25
40 38 38 38 37 36 34 33 32 31 31 29 28 27 21 22 21 20 17 15 12 6 10 8 14 15 9 6 6 11 16 26 23 24 28 31 26 31 31 32 32 29 26 23 25 25 28
47 43 41 39 39 38 35 33 32 31 30 30 29 27 25 21 21 19 17 15 8 17 6 12 14 17 13 10 8 10 18 29 28 30 32 27 33 27 28 31 32 31 27 20 20 20 16
48 42 41 37 35 35 34 33 32 31 30 29 28 26 25 22 23 21 21 19 20 9 24 10 12 16 17 14 11 13 16 26 31 27 26 30 31 38 25 41 39 40 39 31 23 15 17
46 43 37 35 34 34 34 33 33 32 32 30 28 27 25 23 23 24 25 31 21 23 18 21 19 18 19 18 14 14 21 24 29 33 32 30 37 27 38 29 41 40 45 41 36 29 25
41 40 37 35 34 33 33 34 34 34 33 32 30 29 27 24 25 26 32 45 26 22 16 20 23 17 18 22 19 19 21 20 26 30 29 25 22 33 25 30 35 44 41 40 43 26 23
34 34 34 32 32 32 31 32 31 31 29 29 28 26 26 21 24 32 37 37 31 31 23 23 25 27 20 22 19 18 15 19 20 24 27 29 21 20 31 42 42 38 42 43 41 42 19
36 35 35 35 34 34 33 35 33 31 27 25 24 21 19 19 24 24 33 28 33 27 30 32 28 29 29 23 21 21 19 14 17 22 28 28 25 27 25 38 37 40 42 40 38 38 41
39 39 40 41 41 41 40 38 36 34 31 27 26 25 23 23 23 25 25 25 27 27 29 28 37 31 26 26 28 28 25 20 14 16 21 28 32 23 25 27 29 43 48 43 43 38 42
38 38 37 37 38 37 36 33 32 31 27 22 20 14 13 14 18 20 21 24 24 21 27 30 29 28 30 32 28 16 21 21 17 19 18 20 28 34 27 33 36 34 43 49 49 48 43
35 35 35 33 32 32 30 29 24 25 25 21 16 16 22 12 12 16 16 17 15 18 22 22 32 28 29 31 29 29 23 19 15 18 18 15 23 24 29 28 26 34 39 40 50 53 50
35 34 33 32 29 26 23 18 20 20 19 20 17 14 20 30 28 27 22 18 15 16 18 18 22 26 31 31 30 26 28 26 24 22 22 18 17 18 26 30 33 34 37 39 39 41 52
34 32 28 24 22 22 21 18 21 20 20 21 20 22 21 20 24 23 18 18 14 11 16 19 16 14 12 19 23 23 22 21 19 24 22 22 22 16 23 20 25 35 39 38 44 39 37
29 27 23 22 22 20 18 15 17 20 22 21 20 21 21 21 15 15 19 17 18 19 23 17 17 18 15 23 22 24 24 26 25 26 21 16 21 20 22 7 14 26 29 35 37 44 36
27 25 23 22 24 22 20 16 17 21 21 21 16 20 22 24 17 18 18 16 18 20 25 27 24 19 22 22 19 20 22 24 30 31 28 25 22 20 21 23 18 16 11 26 33 38 40
24 23 21 20 22 20 15 16 16 17 20 19 19 19 20 26 18 12 17 18 14 16 17 21 29 26 21 17 17 22 28 25 28 26 28 26 27 25 15 19 18 11 13 22 28 29 37
22 22 21 19 21 19 18 16 16 17 17 18 18 16 17 24 22 21 21 12 11 9 10 13 26 21 18 15 20 23 28 25 23 30 29 29 29 32 23 17 18 19 19 21 11 19 32
21 22 20 19 18 15 16 14 14 15 17 21 18 16 17 24 27 24 21 22 20 17 9 13 7 14 17 17 20 21 20 25 27 27 29 31 30 25 19 17 19 19 14 14 15 21 20
20 19 17 16 15 15 15 14 14 14 15 15 14 14 16 22 22 15 13 19 23 18 19 14 8 10 12 11 8 13 15 12 24 24 18 26 31 24 23 24 23 21 17 18 8 6 13
Wind_Direction
349 343 335 328 321 314 307 300 291 284 281 281 282 284 282 283 285 290 295 298 302 308 306 298 302 313 325 306 279 253 245 228 219 220 212 217 221 222 226 228 231 245 253 263 266 246 209
354 348 344 338 330 324 318 312 306 298 288 280 277 277 279 280 280 281 285 291 297 301 303 306 302 302 307 314 278 255 248 232 223 213 210 208 215 217 228 228 228 255 251 259 265 218 193
352 349 347 343 335 327 319 314 311 310 305 295 284 275 272 272 275 278 279 282 286 289 293 296 303 301 302 307 290 257 246 229 228 220 207 207 209 209 219 228 231 236 253 276 264 198 202
341 339 338 335 332 328 320 313 308 305 303 300 297 289 279 271 268 270 276 278 279 278 281 285 289 291 295 301 274 249 247 230 225 220 211 205 206 209 219 220 215 225 234 229 210 195 220
337 334 330 327 323 320 315 311 305 300 297 295 294 294 292 286 277 270 267 270 273 276 276 274 278 282 296 262 309 267 241 226 218 218 214 210 205 205 213 212 218 216 223 214 194 202 223
332 332 330 326 322 315 310 307 303 300 296 293 291 290 289 286 284 280 273 270 270 269 270 275 274 275 251 252 263 286 243 224 220 218 213 208 201 203 206 209 212 210 218 204 203 212 212
329 326 324 322 319 317 313 308 305 301 297 293 292 292 290 287 287 279 277 276 276 278 266 265 258 256 263 271 267 260 245 220 219 215 202 199 199 207 209 211 214 218 212 211 201 210 207
325 323 321 318 317 315 313 309 306 305 302 296 292 289 287 286 285 282 277 272 271 276 279 270 268 267 261 258 257 245 233 210 206 204 197 199 212 213 211 216 217 224 218 214 203 218 218
326 323 321 318 316 313 309 307 304 301 301 299 293 289 283 281 281 280 278 272 271 277 286 288 267 251 239 233 234 235 221 211 210 206 208 209 216 206 213 216 218 220 222 213 214 227 234
326 324 321 318 316 314 311 307 304 302 300 296 292 287 278 273 276 274 273 274 274 286 295 269 255 197 191 210 256 231 225 214 209 213 210 217 210 209 214 213 214 222 218 220 222 221 228
321 318 314 311 310 309 307 304 301 299 297 296 293 284 272 262 265 266 268 267 264 286 282 224 187 189 205 211 235 245 224 201 212 209 206 213 208 209 213 216 215 223 222 226 230 224 235
315 309 306 304 303 302 301 297 295 292 292 290 288 285 278 265 261 259 254 252 249 230 239 219 189 186 174 184 216 237 206 200 211 218 216 215 218 217 217 215 215 220 233 227 230 232 232
318 316 314 306 300 299 299 297 295 292 288 285 284 278 273 262 251 251 242 228 218 229 223 212 200 200 200 204 205 208 203 198 200 201 213 214 218 217 212 213 213 212 212 211 220 227 239
315 313 313 308 306 304 301 298 295 291 286 281 279 275 267 257 249 240 225 211 226 240 215 193 196 204 214 217 226 213 212 211 214 216 215 211 214 211 210 212 208 214 213 220 220 221 221
310 311 310 305 302 299 296 294 291 286 283 279 276 273 267 256 244 239 219 213 228 231 238 222 222 226 226 230 223 226 225 225 221 212 218 214 228 220 216 212 209 215 221 222 237 231 245
310 309 308 307 304 300 297 293 289 287 285 281 272 264 264 257 242 234 224 230 234 233 217 219 222 224 228 225 225 231 224 227 219 218 217 224 231 218 215 214 216 216 220 219 229 238 228
310 310 311 308 304 301 300 296 293 292 290 285 281 275 264 255 235 229 227 231 237 231 228 228 230 234 237 231 227 223 228 220 207 211 215 216 220 220 214 211 210 211 219 222 229 229 242
308 306 307 306 303 303 301 302 301 298 296 292 284 281 256 241 236 234 237 234 233 236 234 234 235 233 234 229 227 220 221 212 205 206 212 211 218 226 220 220 220 218 217 217 221 226 236
304 305 303 303 303 303 302 303 304 305 306 304 296 287 273 249 245 241 245 245 237 235 233 236 233 232 230 230 230 233 226 220 229 198 207 210 219 216 228 220 215 222 222 221 224 231 227
303 303 303 302 301 302 302 301 299 297 292 291 295 298 287 265 245 248 248 251 247 240 236 229 233 230 230 226 223 227 221 220 224 207 215 200 218 220 221 221 219 215 222 225 228 231 233
303 301 302 305 305 304 301 302 302 298 293 281 271 273 267 254 243 247 248 257 253 245 241 232 229 222 220 221 220 222 219 204 214 204 188 207 222 228 231 239 232 230 225 225 230 235 237
304 306 306 305 305 305 303 296 287 292 287 289 274 263 258 258 263 257 260 258 261 253 242 230 229 228 223 224 224 227 228 225 224 214 219 220 233 237 241 241 240 237 234 233 231 236 239
306 304 304 304 307 307 299 286 276 275 278 277 284 271 265 256 258 258 254 253 239 239 251 244 245 240 228 215 220 220 221 216 220 223 222 216 222 226 243 238 237 239 237 232 232 234 234
300 300 299 298 297 300 303 288 271 267 266 272 274 288 281 264 257 256 250 244 250 242 243 223 237 239 224 224 227 230 236 234 234 227 217 211 220 234 246 237 239 245 235 235 236 230 230
303 299 290 292 295 297 292 294 274 271 269 269 260 274 281 279 266 258 260 265 256 245 238 245 232 241 232 225 230 231 232 232 229 225 222 217 218 231 232 234 256 264 272 235 236 236 229
300 300 299 297 291 293 289 292 279 281 271 257 258 265 265 277 288 271 249 249 257 246 246 242 230 226 235 235 217 220 214 214 213 214 215 211 219 224 210 237 232 232 233 216 224 242 228
299 294 295 296 296 291 286 286 286 277 267 261 258 254 264 273 279 265 253 256 242 251 242 246 220 232 225 229 218 211 222 209 202 194 191 196 201 213 216 227 234 244 255 282 240 247 234
302 294 292 298 296 285 290 279 290 283 276 256 262 252 258 269 278 265 254 254 236 216 229 231 230 209 208 221 211 210 217 201 207 195 193 194 201 209 214 229 236 244 258 257 246 249 235
298 290 295 301 292 294 295 278 294 282 282 250 255 265 270 271 272 273 262 247 236 232 227 221 208 193 198 209 212 217 212 200 196 201 189 200 211 212 213 233 241 234 237 264 274 263 220